Terminal Aerodrome Forecast
Issued by NWS Portland, OR

Home | Current Version | Previous Version | Text Only | Print | Product List | Glossary On
Versions: 1 2 3 4 5 6 7 8 9 10 11 12 13 14 15 16 17 18 19 20 21 22 23 24 25 26 27 28 29
000
FTUS46 KPQR 241738
TAFSLE
TAF
KSLE 241738Z 2418/2518 36010KT P6SM SKC
     FM250400 36005KT P6SM SKC
     FM250700 VRB02KT P6SM SKC
     FM251700 01007KT P6SM SKC=

USA.gov is the U.S. government's official web portal to all federal, state and local government web resources and services.